Weather History for Terre Haute, IN

Change the Weather History Date:

Tuesday, October 9, 2012

  Actual Average Record
Temperature  
Mean Temperature 50 °F 56 °F  
Max Temperature 65 °F 69 °F 85 °F (1980)
Min Temperature 35 °F 44 °F 27 °F (2000)
Degree Days  
Heating Degree Days 15 9  
Month to date heating degree days 103 72  
Since 1 July heating degree days 192 150  
Cooling Degree Days 0 1  
Month to date cooling degree days 2 9  
Year to date cooling degree days 1582 987  
Moisture  
Dew Point 37 °F    
Average Humidity 65    
Maximum Humidity 89    
Minimum Humidity 40    
Precipitation  
Precipitation 0.00 in 0.12 in 0.96 in (1970)
Month to date precipitation 1.06 1.00  
Year to date precipitation 22.79 35.70  
Sea Level Pressure  
Sea Level Pressure 30.05 in    
Wind  
Wind Speed 8 mph (SSW)    
Max Wind Speed 20 mph    
Max Gust Speed 28 mph    
Visibility 10 miles    
Events      
T = Trace of Precipitation, MM = Missing Value Source: NWS Daily Summary

Daily Weather History Graph

Daily Weather History Graph

Search for Another Location

Airport:

Trip Planner

Search our weather history database for the weather conditions in past years. The results will help you decide how hot, cold, wet, or windy it might be!

Date:

Astronomy

Oct. 09, 2012 Rise Set
Actual Time 7:53 AM EDT 7:18 PM EDT
Civil Twilight 7:26 AM EDT 7:45 PM EDT
Nautical Twilight 6:55 AM EDT 8:16 PM EDT
Astronomical Twilight 6:24 AM EDT 8:47 PM EDT
Moon 1:31 AM EDT (10/9) 3:44 PM EDT (10/9)
Length of Visible Light 12h 18m
Length of Day
11h 24m
Last Quarter, 37% of the Moon is Illuminated
Oct 9
Last Quarter
Oct 15
New
Oct 21
First Quarter
Oct 29
Full
Nov 6
Last Quarter

Hourly Weather History & Observations

Time (EDT) Temp. Windchill Dew Point Humidity Pressure Visibility Wind Dir Wind Speed Gust Speed Precip Events Conditions
12:53 AM 39.0 °F - 30.9 °F 73% 30.13 in 10.0 mi Calm Calm - N/A   Clear
1:53 AM 37.9 °F - 30.9 °F 76% 30.12 in 10.0 mi Calm Calm - N/A   Clear
2:53 AM 37.9 °F - 32.0 °F 79% 30.13 in 10.0 mi Calm Calm - N/A   Clear
4:53 AM 36.0 °F - 30.9 °F 82% 30.12 in 10.0 mi Calm Calm - N/A   Clear
5:53 AM 36.0 °F - 30.9 °F 82% 30.12 in 10.0 mi Calm Calm - N/A   Clear
6:53 AM 35.1 °F - 30.9 °F 85% 30.12 in 10.0 mi Calm Calm - N/A   Clear
7:53 AM 36.0 °F - 32.0 °F 86% 30.12 in 10.0 mi Calm Calm - N/A   Clear
8:53 AM 39.9 °F 36.7 °F 34.0 °F 79% 30.13 in 10.0 mi SSE 4.6 mph - N/A   Clear
9:53 AM 48.9 °F - 37.9 °F 66% 30.14 in 10.0 mi South 6.9 mph - N/A   Clear
10:53 AM 55.0 °F - 39.0 °F 55% 30.12 in 10.0 mi SSW 11.5 mph - N/A   Clear
11:53 AM 59.0 °F - 39.9 °F 49% 30.10 in 10.0 mi South 16.1 mph 20.7 mph N/A   Clear
12:53 PM 62.1 °F - 41.0 °F 46% 30.06 in 10.0 mi South 16.1 mph 21.9 mph N/A   Clear
1:53 PM 62.1 °F - 39.0 °F 43% 30.04 in 10.0 mi SSW 18.4 mph 21.9 mph N/A   Clear
2:53 PM 64.0 °F - 39.9 °F 41% 30.01 in 10.0 mi SSW 15.0 mph 23.0 mph N/A   Clear
3:53 PM 64.0 °F - 39.0 °F 40% 29.99 in 10.0 mi South 17.3 mph - N/A   Clear
4:53 PM 64.0 °F - 39.9 °F 41% 29.97 in 10.0 mi SSW 13.8 mph 23.0 mph N/A   Clear
5:53 PM 63.0 °F - 39.9 °F 43% 29.96 in 10.0 mi SSW 9.2 mph 20.7 mph N/A   Clear
6:53 PM 61.0 °F - 39.9 °F 46% 29.96 in 10.0 mi South 9.2 mph - N/A   Clear
7:53 PM 55.0 °F - 39.9 °F 57% 29.95 in 10.0 mi South 5.8 mph - N/A   Clear
8:53 PM 53.1 °F - 41.0 °F 64% 29.96 in 10.0 mi South 5.8 mph - N/A   Clear
9:53 PM 54.0 °F - 41.0 °F 62% 29.96 in 10.0 mi South 8.1 mph - N/A   Clear
10:53 PM 54.0 °F - 41.0 °F 62% 29.95 in 10.0 mi SSW 8.1 mph - N/A   Clear
11:53 PM 54.0 °F - 42.1 °F 64% 29.94 in 10.0 mi SSW 9.2 mph - N/A   Clear